DateTimeUTC,F1_A11,F1_S11,BsB_S11,BsG_S11,BsR_S11,BbsB_S11,BbsG_S11,BbsR_S11,BaB_A11,BaG_A11,BaR_A11,Tu_S11,T_S11,Uu_S11,U_S11,P_S11,T1_A11
2021-06-17T11:00:00Z,00000200,20000000,,,,,,,0000.06,-000.11,0000.12,17.7,24.5,02.6,01.7,0668.0,31.0
2021-06-17T11:01:00Z,00000200,20000000,,,,,,,0000.10,-000.15,0000.06,17.7,24.5,02.6,01.7,0668.0,31.1
2021-06-17T11:02:00Z,00000200,20000000,,,,,,,-000.22,-000.05,-000.05,17.7,24.5,02.6,01.7,0668.0,31.1
2021-06-17T11:03:00Z,00000200,60000000,,,,,,,0000.15,0000.68,0000.57,17.7,24.6,02.6,01.7,0668.0,31.1
2021-06-17T11:04:00Z,00000200,40000000,0000.04,0000.68,-000.03,0000.07,0000.23,-000.26,0000.47,0000.13,-000.12,18.0,24.5,02.8,01.9,0669.0,31.1
2021-06-17T11:05:00Z,00000200,00000000,0000.79,0000.77,0000.33,0000.07,0000.30,0000.02,0000.24,0000.46,0000.39,18.1,24.5,02.7,01.8,0669.1,31.0
2021-06-17T11:06:00Z,00000200,00000000,0001.20,0000.98,0000.54,0000.27,0000.17,0000.25,0000.77,0000.21,0000.10,18.0,24.5,02.8,01.9,0669.1,31.1
2021-06-17T11:07:00Z,00000200,00000000,0001.58,0000.24,0000.24,0000.33,0000.38,-000.16,0000.29,0000.67,0000.19,18.0,24.4,02.8,01.9,0669.1,31.0
2021-06-17T11:08:00Z,00000200,00000000,0000.86,0000.57,0000.13,-000.50,0000.31,-000.17,0000.35,0000.14,0000.39,18.0,24.4,02.8,01.9,0669.1,31.0
2021-06-17T11:09:00Z,00000200,00000000,0001.55,0000.74,-000.00,0000.06,-000.03,-000.12,0000.30,0000.12,0000.32,18.0,24.4,02.9,01.9,0669.1,31.0
2021-06-17T11:10:00Z,00000200,00000000,0000.68,0000.53,0000.11,0000.68,0000.21,0000.00,0000.43,0000.19,0000.20,18.0,24.4,02.9,02.0,0669.1,31.0
2021-06-17T11:11:00Z,00000200,00000000,0001.84,0000.42,0000.34,0000.37,0000.36,-000.00,-000.04,0000.51,-000.01,18.0,24.4,03.0,02.0,0669.1,31.0
2021-06-17T11:12:00Z,00000200,00000000,0001.26,0000.42,0000.29,0000.34,0000.42,-000.13,0000.61,0000.10,-000.01,18.0,24.4,02.9,02.0,0669.1,31.0
2021-06-17T11:13:00Z,00000200,00000000,0001.06,0000.38,0000.18,0000.20,0000.30,0000.01,0000.40,0000.06,0000.43,18.0,24.4,03.0,02.0,0669.1,31.0
2021-06-17T11:14:00Z,00000200,00000000,0001.06,0000.71,0000.40,0000.35,0000.25,-000.00,0000.06,0000.56,0000.41,18.0,24.4,02.9,02.0,0669.1,31.0
2021-06-17T11:15:00Z,00000200,00000000,0001.06,0000.43,0000.52,0000.45,0000.24,0000.25,0000.54,0000.70,0000.04,18.0,24.4,03.0,02.0,0669.1,31.0
2021-06-17T11:16:00Z,00000200,00000000,0001.11,0000.84,0000.42,0000.57,0000.03,0000.04,0000.06,0000.08,0000.16,18.1,24.4,03.0,02.0,0669.1,31.1
2021-06-17T11:17:00Z,00000200,00000000,0000.60,0000.65,0000.55,0000.22,0000.11,0000.32,0000.31,-000.25,0000.36,18.2,24.5,03.0,02.1,0669.1,31.1
2021-06-17T11:18:00Z,00000200,00010000,0001.14,0000.66,0000.37,-000.02,0000.57,0000.16,0000.60,0001.01,0000.31,18.2,24.5,03.0,02.0,0669.1,31.1
2021-06-17T11:19:00Z,00000200,00000000,0000.73,0000.48,0000.50,-000.15,0000.36,-000.19,0000.02,0000.10,0000.11,18.2,24.5,03.0,02.0,0669.1,31.1
2021-06-17T11:20:00Z,00000200,00000000,0001.29,0000.64,0000.35,0000.28,0000.24,0000.15,0000.43,0000.09,-000.00,18.2,24.5,02.9,02.0,0669.1,31.0
2021-06-17T11:21:00Z,00000200,00000000,0001.58,0000.55,0000.34,-000.05,0000.37,0000.12,0000.22,0000.44,0000.36,18.2,24.5,03.0,02.0,0669.1,31.0
2021-06-17T11:22:00Z,00000200,00000000,0001.44,0000.59,0000.42,0000.24,0000.24,0000.01,0000.31,0000.04,0000.51,18.2,24.5,03.0,02.0,0669.1,31.0
2021-06-17T11:23:00Z,00000200,00000000,0001.54,0000.69,0000.32,0000.10,0000.21,0000.19,0000.69,0000.92,-000.06,18.2,24.5,03.0,02.0,0669.1,31.0
2021-06-17T11:24:00Z,00000200,00000000,0001.03,0000.62,0000.11,0000.34,0000.13,-000.05,-000.16,-000.66,0000.17,18.2,24.5,03.0,02.0,0669.1,31.0
2021-06-17T11:25:00Z,00000200,00000000,0001.59,0000.93,0000.23,0000.26,0000.00,0000.31,0000.40,0000.71,0000.29,18.1,24.5,03.0,02.1,0669.1,31.0
2021-06-17T11:26:00Z,00000200,00000000,0000.52,0000.64,0000.41,0000.14,0000.20,-000.08,0000.18,0000.23,0000.12,18.1,24.5,03.0,02.1,0669.1,31.0
2021-06-17T11:27:00Z,00000200,00000000,0001.31,0000.62,0000.31,0000.37,0000.01,-000.15,0000.29,0000.52,0000.28,18.1,24.4,03.1,02.1,0669.1,31.1
2021-06-17T11:28:00Z,00000200,00000000,0001.36,0000.80,-000.12,0000.55,0000.15,-000.24,0000.43,0000.16,0000.18,18.1,24.4,03.0,02.1,0669.1,31.0
2021-06-17T11:29:00Z,00000200,00000000,0001.24,0000.74,0000.01,0000.25,0000.36,-000.31,0000.52,0000.46,0000.33,18.1,24.4,03.0,02.1,0669.1,31.0
2021-06-17T11:30:00Z,00000200,00000000,0000.77,0000.64,0000.38,0000.77,0000.22,-000.02,0000.63,0000.27,0000.40,18.1,24.4,03.2,02.1,0669.1,31.0
2021-06-17T11:31:00Z,00000200,00000000,0000.83,0000.48,0000.21,0000.47,0000.05,0000.07,0000.39,0000.21,-000.19,18.1,24.4,03.2,02.2,0669.1,31.0
2021-06-17T11:32:00Z,00000200,00000000,0001.74,0000.43,0000.12,0000.51,0000.24,-000.08,0000.39,0000.40,0000.30,18.1,24.4,03.2,02.2,0669.1,31.0
2021-06-17T11:33:00Z,00000200,00000000,0001.49,0000.52,0000.17,-000.14,0000.36,0000.16,0000.18,0000.41,0000.47,18.0,24.4,03.2,02.2,0669.1,31.0
2021-06-17T11:34:00Z,00000200,00000000,0001.63,0000.61,0000.05,-000.05,0000.24,-000.14,0000.51,0000.09,0000.23,18.1,24.4,03.2,02.1,0669.1,31.0
2021-06-17T11:35:00Z,00000200,00000000,0001.68,0000.66,0000.35,0000.66,0000.01,-000.25,0000.11,0000.35,-000.44,18.0,24.4,03.2,02.2,0669.1,31.0
2021-06-17T11:36:00Z,00000200,00000000,0001.65,0000.72,0000.37,-000.19,0000.04,0000.11,0000.14,0000.20,0000.75,18.0,24.4,03.3,02.2,0669.0,31.0
2021-06-17T11:37:00Z,00000200,00000000,0001.23,0000.86,0000.13,0000.15,-000.25,0000.05,0000.63,0000.75,0000.28,18.0,24.4,03.3,02.2,0669.1,31.0
2021-06-17T11:38:00Z,00000200,00000000,0001.14,0000.60,0000.51,-000.21,0000.32,0000.41,0000.10,-000.04,0000.35,18.0,24.4,03.3,02.3,0669.1,31.0
2021-06-17T11:39:00Z,00000200,00000000,0001.97,0000.85,0000.69,0000.67,0000.45,-000.20,0000.34,0000.12,0000.03,18.0,24.3,03.3,02.3,0669.0,31.0
2021-06-17T11:40:00Z,00000200,00000000,0001.19,0000.73,0000.26,0000.10,0000.16,-000.16,0000.33,0000.34,0000.24,18.0,24.3,03.2,02.2,0669.0,31.0
2021-06-17T11:41:00Z,00000200,00000000,0001.05,0000.49,0000.47,0000.10,-000.05,0000.22,0000.49,0000.55,0000.19,18.0,24.3,03.3,02.2,0669.0,31.0
2021-06-17T11:42:00Z,00000200,00000000,0001.62,0000.65,0000.60,-000.06,-000.02,-000.02,0000.17,0000.15,0000.11,18.0,24.3,03.3,02.2,0669.0,31.0
2021-06-17T11:43:00Z,00000200,00000000,0001.61,0000.65,0000.59,-000.04,0000.39,0000.12,0000.40,0000.39,0000.33,18.0,24.3,03.3,02.2,0669.0,31.0
2021-06-17T11:44:00Z,00000200,00000000,0001.45,0000.68,0000.46,0000.45,0000.41,0000.17,0000.60,0000.12,0000.30,18.0,24.3,03.3,02.3,0669.0,31.0
2021-06-17T11:45:00Z,00000200,00000000,0001.27,0000.57,0000.02,0000.07,-000.05,0000.08,0000.20,0000.25,-000.17,18.1,24.4,03.4,02.3,0669.0,31.0
2021-06-17T11:46:00Z,00000200,00000000,0001.27,0000.33,0000.34,0000.44,-000.06,0000.29,0000.27,0000.62,0000.87,18.1,24.4,03.3,02.2,0669.0,31.1
2021-06-17T11:47:00Z,00000200,00000000,0001.67,0000.68,0000.05,-000.12,0000.31,0000.05,0000.23,0000.06,-000.13,18.1,24.4,03.4,02.3,0669.0,31.0
2021-06-17T11:48:00Z,00000200,00000000,0000.54,0000.83,0000.30,0000.44,0000.21,-000.10,0000.09,0000.30,0000.07,18.1,24.4,03.3,02.2,0669.0,31.0
2021-06-17T11:49:00Z,00000200,00000000,0001.18,0000.31,0000.60,-000.07,0000.11,0000.21,0000.42,0000.33,0000.46,18.1,24.4,03.3,02.2,0669.0,31.0
2021-06-17T11:50:00Z,00000200,00000000,0001.63,0000.72,0000.28,0000.26,0000.23,0000.18,0000.32,0000.13,0000.02,18.2,24.4,03.2,02.2,0669.0,31.0
2021-06-17T11:51:00Z,00000200,00000000,0000.71,0000.84,0000.20,0000.27,0000.08,-000.19,0000.63,0000.43,0000.38,18.1,24.4,03.4,02.3,0669.0,31.1
2021-06-17T11:52:00Z,00000200,00000000,0001.39,0000.53,0000.05,0000.03,0000.29,-000.20,0000.22,0000.34,0000.33,18.1,24.4,03.3,02.2,0669.0,31.1
2021-06-17T11:53:00Z,00000200,00000000,0001.22,0000.47,0000.43,0000.38,0000.25,0000.00,0000.59,0000.78,0000.26,18.1,24.4,03.3,02.3,0669.0,31.1
2021-06-17T11:54:00Z,00000200,00000000,0001.56,0000.45,0000.50,0000.60,-000.18,0000.11,0000.34,-000.14,0000.42,18.1,24.4,03.5,02.3,0669.1,31.0
2021-06-17T11:55:00Z,00000200,00000000,0001.33,0000.65,0000.50,0000.39,0000.18,0000.23,0000.38,0000.69,0000.41,18.1,24.4,03.4,02.3,0669.1,31.0
2021-06-17T11:56:00Z,00000200,00000000,0001.15,0000.15,0000.28,0000.10,0000.48,0000.06,0000.22,0000.22,-000.23,18.1,24.4,03.5,02.4,0669.0,31.0
2021-06-17T11:57:00Z,00000200,40000000,,,,,,,-000.29,-000.40,0000.09,18.2,24.4,03.8,02.6,0669.1,31.0
2021-06-17T11:58:00Z,00000200,60000000,,,,,,,0000.32,0000.10,-000.12,17.9,24.5,03.2,02.1,0668.0,31.0
2021-06-17T11:59:00Z,00000200,20000000,,,,,,,0000.19,0000.06,-000.21,17.9,24.6,03.2,02.1,0668.0,31.0
